Back to catalog

STARLINK-33591

AliveCommunicationsVLEO
NORAD 62777·PAYLOAD·🇺🇸 United States

Launched Jan 21, 2025 from Vandenberg Space Force Base

Loading…

Next Passes (next 24 hours)

TLE

FreshSource: CelesTrak SupGP

Epoch: Sep 14, 2026, 20:52 UTC

1 62777C 25015V   26257.86993056 -.00030831  00000+0 -91070-3 0  2573
2 62777  53.1566 159.9177 0001314  89.0230 115.5417 15.34412926    19

Track STARLINK-33591 in real time with AllMySat

Download on the App Store